043  
NZUS43 KILX 201910  
HWRILX  
 
AREA WEATHER ROUNDUP  
NATIONAL WEATHER SERVICE LINCOLN IL  
200 PM CDT WED JUN 20 2018  
 
NOTE: "FAIR" INDICATES FEW OR NO CLOUDS BELOW 12,000 FEET, WITH  
NO SIGIFICANT WEATHER AND/OR OBSTRUCTIONS TO VISIBILITY.  
 
 
CITY SKY/WX TMP DP RH WIND PRES REMARKS
 
BLOOMINGTON CLOUDY 84 72 65 SW7 29.87F HX 89  
CHAMPAIGN PTSUNNY 85 74 69 CALM 29.87F HX 92  
DANVILLE FAIR 82 73 74 W5 29.84F HX 88  
DECATUR FAIR 83 73 72 SW7 29.86F HX 89  
EFFINGHAM FAIR 82 66 57 S6 29.89F HX 84  
FLORA FAIR 84 74 70 NW6 29.88F HX 91  
GALESBURG PTSUNNY 85 72 65 E6 29.83F HX 90  
JACKSONVILLE CLOUDY 85 74 71 SW8 29.84F HX 92  
LACON CLOUDY 82 72 72 CALM 29.84F HX 87  
LAWRENCEVILLE FAIR 85 71 63 NW7 29.87F HX 90  
LITCHFIELD CLOUDY 83 72 69 CALM 29.87F HX 88  

 
 
 
CITY SKY/WX TMP DP RH WIND PRES REMARKS
 
LINCOLN FAIR 85 74 70 S7 29.85F HX 93  
MACOMB MOSUNNY 84 73 69 SE6 29.83F HX 90  
MATTOON FAIR 81 75 82 S6 29.87F HX 87  
MT CARMEL AP PTSUNNY 86 73 65 SW7 29.86F HX 93  
OLNEY-NOBLE AP FAIR 82 74 77 W3 29.89F HX 88  
PARIS AP FAIR 78 74 86 S6 29.89F HX 81  
PEORIA FAIR 86 71 60 S6 29.84F HX 91  
PONTIAC PTSUNNY 80 75 86 CALM 29.87F HX 84  
RANTOUL FAIR 85 75 71 CALM 29.86F HX 93  
ROBINSON FAIR 83 72 70 NW5 29.89F HX 88  
SPRINGFIELD FAIR 85 75 72 S5 29.85F HX 93  
TAYLORVILLE FAIR 83 73 71 S6 29.86F HX 90  

 
   
..REGIONAL REPORTS
 
 
 
CITY SKY/WX TMP DP RH WIND PRES REMARKS
 
CHICAGO O'HARE PTSUNNY 77 64 64 VRB6 29.87F  
KANKAKEE CLOUDY 79 70 74 W7 29.87F HX 81  
LA SALLE CLOUDY 80 71 74 CALM 29.87S HX 83  
MOLINE FAIR 84 73 69 SE8 29.81F HX 90  
MOUNT STERLING CLOUDY 85 74 68 SE12 29.81F HX 92  
MOUNT VERNON FAIR 82 76 81 NE7 29.87F HX 89  
PITTSFIELD HVY RAIN 78 75 91 CALM 29.85F HX 81  
QUINCY MOSUNNY 88 71 57 S13 29.80F HX 94  
ROCKFORD CLOUDY 73 66 78 SE3 29.89S  

 
 
 
CITY SKY/WX TMP DP RH WIND PRES REMARKS
 
BURLINGTON CLOUDY 88 73 61 S8 29.79F HX 95  
CEDAR RAPIDS CLOUDY 81 72 74 S7 29.79F HX 85  
DES MOINES CLOUDY 78 68 71 E16G23 29.72F HX 80  
KIRKSVILLE CLOUDY 86 75 69 SW15G23 29.79F HX 95  
OTTUMWA CLOUDY 84 72 67 S13 29.76F THUNDER HX 89  
ST LOUIS MOSUNNY 89 70 53 S7 29.86F HX 94  

 
 
 
CITY SKY/WX TMP DP RH WIND PRES REMARKS
 
TERRE HAUTE FAIR 79 72 79 SW6 29.88F HX 82  
EVANSVILLE FAIR 88 71 57 SW12 29.87F HX 94  
INDIANAPOLIS PTSUNNY 83 70 64 W12 29.87F HX 87  
LAFAYETTE PTSUNNY 81 72 74 VRB5 29.86F HX 85  
MADISON CLOUDY 70 65 84 E9 29.90S  
MILWAUKEE CLOUDY 64 61 90 NE7 29.91F  

 
 
 
 
CLICK HERE TO GO TO PREVIOUS BULLETINS.

The Nexlab IL Page Main Text Page